Kerrville, TX (78029)

9:19 AM CST on December 22, 2014 (GMT -0600)
Mt. Wesley | Change Station
CLOSE
Current Station
Personal Weather Station
Location: Kerrville, TX
Elevation: 1818 ft
Nearby Weather Stations

Elev 1818 ft 30.08 °N, 99.16 °W | Updated 6 minutes ago

Partly Cloudy
Partly Cloudy
51.1 °F
Feels Like 51.1 °F
N
0.0
Wind Variable Wind from SSW

Today
High -- | Low -- °F
--% Chance of Precip.
Yesterday
High -- | Low -- °F
Precip. -- in
7:28 AM 5:41 PM
New Moon, 0% visible
Pressure 29.77 in
Visibility 10.0 miles
Clouds Scattered Clouds 600 ft
Dew Point 51 °F
Humidity 99%
Rainfall 0.00 in
Snow Depth Not available.
UV 1 out of 12
Pollen 10.00 out of 12
Air Quality Not available.
Flu Activity Not available.
METAR KERV 221455Z AUTO 17003KT 10SM SCT006 12/11 A2977 RMK AO2 T01200108

More Conditions Fewer Conditions

Pressure 29.77 in
Visibility 10.0 miles
Clouds Scattered Clouds 600 ft
Dew Point 51 °F
Humidity 99%
Rainfall 0.00 in
Snow Depth Not available.
UV 1 out of 12
Pollen 10.00 out of 12
Air Quality Not available.
Flu Activity Not available.
METAR KERV 221455Z AUTO 17003KT 10SM SCT006 12/11 A2977 RMK AO2 T01200108

More Conditions Fewer Conditions

10-Day Weather Forecast

Almanac

Astronomy

Dec. 22, 2014 Rise Set
Actual Time
Civil Twilight
Nautical Twilight
Astronomical Twilight
Moon
Length of Visible Light
Length of Day
Tomorrow will be .
, % of the Moon is Illuminated

Today's Extremes

State Highs State Lows

Community

WunderPhotos

Upload Photos

1,779,610 photos uploaded!

WunderBlogs® & News

Nearby

Air Quality

  Air Quality AQ Index Pollutant
Not available.

Snow Depth

Station Depth Elevation

Earthquake Activity

City Distance Mag. Time & Date
Minimum magnitude displayed is 2.5.

Coastal Water Temperatures

Place Temperature

Nearby Weather Stations